TITAN 3C TRANSTAGE DEB, 36984

Orbit data source: Space-Track

TITAN 3C TRANSTAGE DEB, 36984 is space debris originally from a launch on Tue, 21 Dec 1965 UTC launched from the Air Force Eastern Test Range (AFETR). Debris objects in space refer to the collection of defunct objects orbiting the Earth. Examples of debris include non-operational satellites, rocket bodies, and fragments generated from explosions, collisions, or faulty payload assembly.

Loading next visibility...
Identifier
36984, 1965-108DQ
Orbit
Active
Country
Flag of USUS
Related business
Manufacturer
Unknown
Mission
Spacecraft
Bus & Motor
Unknown
Mass
Unknown
Launch date (UTC)
1965-12-21 (61 years ago)
Launch vehicle
Unknown
Launch site
Air Force Eastern Test Range (AFETR)
Object type
Payload
Rocket body
Debris
Shape & HBR
Unknown shape, 0.1 m
Radar Cross Section
Medium (>0.1 m² and <1 m²)

Expand to show TLE details & history
Last TLE update: 3 weeks ago

TLE from 3 weeks ago
0 TITAN 3C TRANSTAGE DEB
1 36984U 65108DQ  26186.86874419  .00001034  00000-0  19433-2 0  9990
2 36984  26.4399 277.4847 4101890 201.9254 133.8005  6.77826230643486
Epoch: 2026-07-05T20:50Z
TLE epoch observation values (Epoch: 2026-07-05T20:50:59.498Z)
Latitude
-0.00003°
Longitude
40.87484°
Altitude
9,456.794 km
Speed
4.069 km/s
True Right ascension
18h 29m 56s
True Declination
0° 00' 00"
Sunlit
Object was in partial shadow at epoch
Visualization orbit readout
Latitude
Unknown
Longitude
Unknown
Altitude
Unknown
Speed
Unknown
Apparent Right ascension
Unknown
Apparent Declination
Unknown
Sunlit
N/A
Visualization observer readout
Local Sidereal Time
18:53:54
Azimuth
Unknown
Elevation
Unknown
Doppler factor
Unknown
Orbital elements
Apogee altitude
10,258.335 km
Perigee altitude
580.061 km
Semi-major axis
11,797.335 km
Eccentricity
0.41019
Inclination
26.4399°
RAAN
277.4847°
Arg. of periapsis
201.9254°
True anomaly
158.10892°
Mean anomaly
133.8005°
Eccentric anomaly
146.70275°
Mean motion
1.69382 °/min
Orbital period
212.54 mins
BSTAR
0.0019433

Documentation

Showing up to 5 results
|